Location: Monfort
(47.1967°N, 0.2115°W)
Time: 10:01:31
(UTC+00:00)

Daily predictions for brighter satellites

Satellite Brightness Start Highest point End
(mag) Time Altitude Azimuth Time Altitude Azimuth Time Altitude Azimuth
NOSS 2-1 (E) 4.0 17:22:02 10° WSW 17:25:14 43° NW 17:28:46 10° NNE
Cosmos 1340 4.4 17:23:45 10° NNE 17:25:44 14° ENE 17:27:43 10° E
ADEOS Rocket 3.4 17:19:40 10° NNE 17:25:55 82° WNW 17:32:53 10° SSW
Cosmos 1356 Rocket 3.5 17:22:02 10° S 17:26:17 83° E 17:30:36 10° NNE
CORIOLIS 4.1 17:21:38 10° SSE 17:26:58 81° ENE 17:32:21 10° NNW
Cosmos 1825 Rocket 4.0 17:23:36 10° N 17:27:52 41° ENE 17:32:03 10° SSE
CZ-4 R/B 2.7 17:25:46 10° ESE 17:28:31 19° ENE 17:31:15 10° NNE
ERS-2 2.2 17:25:25 10° NNE 17:29:02 59° ESE 17:32:37 10° S
BREEZE-M DEB (TANK) 3.9 17:26:37 10° WSW 17:29:55 71° NNW 17:41:07 10° ENE
YAOGAN 1 3.9 17:29:11 10° ESE 17:32:21 20° ENE 17:35:32 10° NNE
USA 281 3.6 17:26:37 10° SSE 17:33:10 71° WSW 17:39:45 10° NNW
Lacrosse 5 2.9 17:28:23 10° W 17:33:11 41° NNW 17:37:58 10° NE
ERBS 3.9 17:31:19 10° W 17:34:14 27° NNW 17:37:09 10° NE
Cosmos 2219 4.1 17:29:28 10° NNW 17:34:29 30° NE 17:39:28 10° ESE
AQUARIUS 4.4 17:32:30 10° S 17:37:00 78° WSW 17:41:31 10° NNW
Cosmos 1655 Rocket 4.4 17:32:37 10° NNW 17:39:01 74° W 17:45:23 10° S
CZ-4B R/B 1.2 17:37:07 10° NNE 17:40:24 71° ESE 17:43:34 10° S
SAR-Lupe-4 3.9 17:37:24 10° NNE 17:40:52 43° E 17:44:18 10° S
Cosmos 1400 Rocket 4.2 17:39:14 10° SE 17:42:15 20° E 17:45:15 10° NE
USA 305 4.0 17:39:15 10° WNW 17:43:10 32° N 17:46:51 11° ENE
Cosmos 44 4.1 17:39:44 10° S 17:43:28 27° ESE 17:47:24 10° ENE
Cosmos 1726 Rocket 4.1 17:41:13 10° SSE 17:45:11 37° E 17:49:13 10° NNE
Cosmos 1758 Rocket 3.5 17:40:46 10° N 17:45:13 80° E 17:49:35 10° SSE
Okean-O 3.3 17:41:33 10° SE 17:45:31 33° ENE 17:49:31 10° N
CZ-4C R/B 4.3 17:41:39 10° NW 17:45:57 19° N 17:50:45 10° NE
Meteor 2-14 Rocket 4.4 17:42:01 10° N 17:48:12 74° E 17:54:18 10° SSE
USA 306 4.0 17:45:32 10° WNW 17:49:26 33° N 17:52:49 13° ENE
Meteor 2-21 4.4 17:45:49 10° N 17:52:01 82° E 17:58:09 10° S
Cosmos 1818 4.4 17:48:26 10° WSW 17:53:42 50° NW 17:59:02 10° NNE
Cosmos 1943 Rocket 4.4 17:49:39 10° W 17:53:48 21° NW 17:57:57 10° N
CZ-4B R/B 4.5 17:51:23 10° S 17:56:46 46° W 18:02:07 10° NNW
Aureole 3 3.8 17:55:14 10° SSE 17:57:58 24° E 18:00:31 10° NE
SAR-Lupe-1 4.0 17:55:01 10° NNE 17:58:36 66° ESE 18:02:09 10° S
Cosmos 1331 Rocket 4.0 17:54:17 10° S 17:59:20 60° ESE 18:04:26 10° NNE
Cosmos 1606 Rocket 3.5 17:55:12 10° S 17:59:30 66° E 18:03:53 10° NNE
SKYMED 2 3.6 17:58:05 10° NNE 18:02:24 59° E 18:06:41 10° S
Cosmos 2228 2.9 17:59:34 10° S 18:03:48 77° E 18:08:05 10° NNE
ATLAS 5 CENTAUR R/B 3.6 18:00:37 10° W 18:04:00 22° NNW 18:07:48 10° NNE
SL-4 R/B 2.4 18:02:07 10° W 18:05:33 45° N 18:08:01 18° ENE
FALCON 9 DEB 4.3 18:03:47 10° SSW 18:06:22 23° SE 18:07:15 20° ESE
CZ-2C R/B 3.5 18:02:43 10° SE 18:08:16 48° ENE 18:13:42 10° N
Cosmos 292 Rocket 3.9 18:03:53 10° S 18:08:31 53° ESE 18:13:14 10° NNE
Cosmos 1346 Rocket 4.0 18:09:21 10° NNE 18:12:31 22° ENE 18:12:50 22° ENE
Cosmos 2227 Rocket 2.6 18:07:37 10° NNW 18:12:58 41° NE 18:17:08 16° ESE
ARGOS 4.0 18:09:09 12° ESE 18:13:14 30° ENE 18:17:53 10° N
FALCON 9 DEB 4.2 18:11:39 10° SSW 18:14:24 26° SE 18:15:00 24° ESE
Meteor 2-10 Rocket 4.4 18:11:08 10° SE 18:15:33 27° E 18:19:53 10° NNE
Cosmos 1892 3.4 18:13:51 10° N 18:17:23 32° ENE 18:19:18 21° ESE
SeaSat 1 3.0 18:14:54 19° ESE 18:17:55 37° NE 18:22:26 10° NNW
CZ-2D R/B 3.1 18:16:03 10° SSE 18:19:52 84° ENE 18:23:42 10° NNW
USA 215 3.8 18:17:29 19° ENE 18:21:51 45° NNE 18:28:01 10° NW
Meteor 2-16 Rocket 4.4 18:16:02 10° N 18:22:10 89° E 18:28:16 10° S
Cosmos 1656 4.2 18:17:15 10° S 18:22:14 35° ESE 18:26:21 15° NE
Cosmos 2263 Rocket 4.0 18:20:37 10° N 18:23:15 13° NE 18:24:14 13° NE
ATLAS 2AS CENTAUR R/B 4.1 18:17:35 10° NW 18:23:55 26° NNE 18:27:53 17° ENE
Cosmos 968 Rocket 3.9 18:19:07 10° N 18:24:04 40° ENE 18:26:57 22° ESE
Cosmos 1110 Rocket 4.1 18:19:46 10° SSW 18:25:01 77° WNW 18:30:17 10° NNE
CSL-04 Rocket 3.9 18:20:42 10° SE 18:26:01 49° ENE 18:31:20 10° N
Cosmos 2058 Rocket 3.0 18:21:43 10° S 18:26:07 63° E 18:30:35 10° NNE
Cosmos 1953 Rocket 3.8 18:22:38 10° NNW 18:27:02 74° W 18:31:27 10° S
Cosmos 1302 Rocket 4.1 18:22:44 10° S 18:27:51 56° ESE 18:33:02 10° NNE
FALCON 9 DEB 3.6 18:26:05 10° SSW 18:29:02 35° SE 18:29:11 35° SE
HJ-1C 4.3 18:30:28 31° NE 18:30:28 31° NE 18:32:56 10° N
Cosmos 1300 2.9 18:26:43 10° SSW 18:30:30 70° W 18:34:19 10° N
Cosmos 1486 Rocket 4.3 18:25:25 10° NNW 18:30:36 48° ENE 18:33:46 22° SE
USA 307 3.8 18:27:25 10° WNW 18:31:25 37° NNE 18:32:53 28° NE
Cosmos 1697 Rocket 3.8 18:29:43 10° SSE 18:32:53 22° ESE 18:32:53 22° ESE
USA 308 3.7 18:32:11 10° WNW 18:36:12 38° NNE 18:37:27 30° NE
Helios 1A Rocket 3.3 18:33:33 10° S 18:37:39 65° WSW 18:41:46 10° NNW
GEOS 3 Rocket 3.6 18:36:45 17° SE 18:40:58 88° NE 18:46:24 10° NW
Timation 2 Rocket 4.3 18:36:31 10° NNW 18:43:04 74° WSW 18:49:51 10° SSE
S3M 4.0 18:37:29 10° SSE 18:43:20 51° E 18:49:16 10° NNE
CRYOSAT 2 4.4 18:39:50 10° NNE 18:44:36 51° E 18:49:19 10° SSE
Cosmos 1939 Rocket 4.4 18:41:47 10° SSW 18:45:29 36° W 18:49:10 10° NNW
Cosmos 1825 4.2 18:43:29 10° N 18:44:29 16° NNE 18:44:29 16° NNE
Cosmos 1689 Rocket 4.0 18:45:30 10° N 18:48:06 30° WNW 18:50:41 10° SW
COSMO-SKYMED 1 3.7 18:46:16 10° N 18:50:25 45° WNW 18:54:33 10° SW
Cosmos 1408 3.7 18:48:24 10° N 18:50:33 31° NNE 18:50:33 31° NNE
FALCON 9 DEB 4.4 18:49:31 10° WNW 18:52:35 29° N 18:52:39 29° N
Cosmos 2297 Rocket 2.1 18:47:50 10° NNW 18:53:34 90° S 18:57:46 19° SSE
Cosmos 1417 Rocket 4.4 18:49:25 10° S 18:55:38 78° E 19:01:59 10° N
In-Cosmos 22 Rocket 4.2 18:51:48 10° NNW 18:57:08 76° W 19:02:33 10° S
Cosmos 2058 2.7 18:53:49 10° N 18:57:54 68° ENE 18:57:58 68° E
MOS 1 Rocket 3.1 18:54:10 10° NNE 18:58:46 72° ESE 19:03:37 10° S
H-2A R/B 2.1 18:54:11 10° SSE 18:59:34 87° ENE 19:05:04 10° NNW
Cosmos 1340 3.4 18:57:59 10° NNW 19:01:41 52° W 19:05:21 10° S
SL-08 RB Rocket 4.2 19:03:12 40° NNE 19:03:12 40° NNE 19:06:33 10° N
CSL-04 Debris 4.2 18:57:11 10° SSE 19:02:38 83° WSW 19:08:08 10° NNW
CZ-4 R/B 2.6 18:59:34 10° S 19:03:17 41° W 19:06:58 10° NNW
Aureole 3 Rocket 3.8 19:01:26 10° SSW 19:05:05 52° WNW 19:10:01 10° N
YAOGAN 1 3.5 19:03:58 10° S 19:08:08 47° W 19:12:20 10° NNW
Cosmos 1076 Rocket 4.1 19:07:57 10° N 19:10:59 44° N 19:10:59 44° N
Cosmos 1553 Rocket 4.2 19:08:17 10° SSW 19:14:39 71° W 19:20:57 10° N
Lacrosse 5 3.3 19:12:55 10° WNW 19:17:13 27° N 19:18:09 25° NNE
Ariane Rocket 3.6 19:18:51 42° NNE 19:18:51 42° NNE 19:22:36 10° N
Cosmos 1400 Rocket 4.3 19:14:36 10° SW 19:18:28 38° WNW 19:22:19 10° N
Cosmos 2219 3.8 19:13:21 10° NW 19:18:58 56° WSW 19:23:22 17° S
Geosat 4.4 19:17:11 15° NNE 19:21:16 61° WNW 19:26:12 10° SW
BREEZE-M R/B 3.9 19:16:58 10° WNW 19:21:27 76° NNE 19:23:14 52° E
USA 305 3.6 19:19:33 10° NW 19:23:00 46° NNW 19:23:00 46° NNW
Cosmos 44 4.1 19:20:04 10° WSW 19:24:26 46° NW 19:26:06 33° N
Cosmos 2082 3.5 19:24:11 10° NNW 19:29:58 83° ENE 19:30:17 78° ESE
USA 306 3.8 19:25:48 10° NW 19:28:58 43° NNW 19:28:58 43° NNW
Atlas Centaur 2 4.4 19:25:05 10° SSW 19:30:50 20° S 19:31:15 20° SSE
CZ-4C R/B 3.9 19:31:02 10° NNW 19:36:46 29° NNE 19:37:16 29° NNE
Meteor 2-1 Rocket 4.5 19:38:42 10° SSW 19:44:10 64° WNW 19:49:41 10° N
SL-4 R/B 4.0 19:42:00 10° WNW 19:43:36 23° NW 19:43:36 23° NW
ATLAS 5 CENTAUR R/B 4.3 19:48:23 10° NNW 19:50:34 13° N 19:51:05 13° N
IRS-1A Rocket 4.5 19:53:01 64° NNW 19:53:01 64° NNW 19:57:42 10° NNW
ARGOS 4.1 19:50:40 27° SSW 19:53:18 46° W 19:58:31 10° NNW
NOSS 3-4 (A) 4.0 19:47:26 10° NW 19:53:45 55° NNE 19:53:45 55° NNE
NOSS 3-4 (C) 4.0 19:47:32 10° NW 19:53:51 54° NNE 19:53:51 54° NNE
SeaSat 1 3.6 19:54:42 36° SW 19:55:23 38° WSW 20:00:00 10° NW
Cosmos 2227 Rocket 3.5 19:51:49 10° NW 19:56:58 37° WSW 19:59:01 28° SSW
USA 215 3.2 20:04:50 83° NW 20:04:50 83° NW 20:11:07 10° NW
Cosmos 2263 Rocket 3.6 20:03:04 10° NNW 20:05:55 29° N 20:05:55 29° N
Cosmos 1709 Rocket 4.5 20:03:22 10° NNW 20:09:37 59° W 20:10:33 53° SW
ATLAS 2AS CENTAUR R/B 3.2 20:09:02 10° NW 20:15:18 53° N 20:15:18 53° N
Cosmos 1697 Rocket 4.2 20:12:08 10° SW 20:14:44 27° SW 20:14:44 27° SW
CZ-4C R/B 4.3 21:19:20 10° NW 21:22:27 30° NNW 21:22:27 30° NNW
